Location: Acts Church of Fort Worth
(32.6786°N, 97.2668°W)
Time: 22:42:45
(UTC+00:00)

Cosmos 2082 Rocket - Pass Details

Date: 18 January 2026
Orbit: 832 x 853 km, 71.0° (Epoch: 11 February)

Event Time Altitude Azimuth Distance (km) Brightness Sun altitude
Rises 01:59:04 0° 189° (S) 3,358 5.5 -27.3°
Reaches altitude 10° 02:01:31 10° 185° (S) 2,428 4.7 -27.8°
Enters shadow 02:04:25 31° 173° (S) 1,415 3.3 -28.4°
